• In Netherlands
  • List of Countries
  • For 7 days
  • Water Temperature
  • Satellite Maps
  • Weather Map
  • Weather Widgets
  • user-avatar
    Login

    Hourly Weather Kaprun

    Today, 27 April, Thursday

    Time Temperature Precipitation Wind Pressure Humidity
    00:00 -2°C° 1.7 mm 1 mps 589 mmHg 99%
    01:00 -2°C° 1.7 mm 1 mps 589 mmHg 99%
    02:00 -2°C° 1.3 mm 1 mps 589 mmHg 99%
    03:00 -2°C° 1.3 mm 1 mps 589 mmHg 99%
    04:00 -2°C° 1.3 mm 1 mps 589 mmHg 99%
    05:00 -2°C° 1 mm 1 mps 589 mmHg 99%
    06:00 -2°C° 1 mm 1 mps 589 mmHg 99%
    07:00 -2°C° 1 mm 1 mps 589 mmHg 98%
    08:00 -2°C° 1.2 mm 1 mps 590 mmHg 99%
    09:00 -1°C° 1.2 mm 1 mps 590 mmHg 99%
    10:00 -1°C° 1.2 mm 1 mps 590 mmHg 99%
    11:00 -1°C° 1.1 mm 1 mps 590 mmHg 99%
    12:00 0°C° 1.1 mm 1 mps 590 mmHg 99%
    13:00 0°C° 1.1 mm 1 mps 590 mmHg 98%
    14:00 -2°C° 2.4 mm 2 mps 590 mmHg 99%
    15:00 -3°C° 2.4 mm 2 mps 590 mmHg 99%
    16:00 -3°C° 2.4 mm 2 mps 589 mmHg 99%
    17:00 -4°C° 3 mm 2 mps 589 mmHg 99%
    18:00 -4°C° 3 mm 2 mps 589 mmHg 99%
    19:00 -5°C° 3 mm 2 mps 589 mmHg 99%
    20:00 -5°C° 2.8 mm 2 mps 589 mmHg 99%
    21:00 -5°C° 2.8 mm 2 mps 589 mmHg 99%
    22:00 -5°C° 2.8 mm 2 mps 589 mmHg 99%
    23:00 -5°C° 2.5 mm 2 mps 588 mmHg 99%

    Tomorrow, 28 April, Friday

    Time Temperature Precipitation Wind Pressure Humidity
    00:00 -5°C° 2.5 mm 2 mps 588 mmHg 99%
    01:00 -4°C° 2.5 mm 1 mps 587 mmHg 99%
    02:00 -4°C° 1.7 mm 1 mps 587 mmHg 98%
    03:00 -4°C° 1.7 mm 1 mps 587 mmHg 98%
    04:00 -4°C° 1.7 mm 1 mps 587 mmHg 98%
    05:00 -4°C° 0.9 mm 1 mps 587 mmHg 98%
    06:00 -3°C° 0.9 mm 1 mps 587 mmHg 98%
    07:00 -3°C° 0.9 mm 1 mps 587 mmHg 99%
    08:00 -3°C° 0.9 mm 1 mps 587 mmHg 99%
    09:00 -2°C° 0.9 mm 1 mps 588 mmHg 99%
    10:00 -2°C° 0.9 mm 1 mps 588 mmHg 99%
    11:00 -2°C° 1 mm 1 mps 588 mmHg 99%
    12:00 -4°C° 1 mm 2 mps 588 mmHg 98%
    13:00 -4°C° 1 mm 2 mps 588 mmHg 98%
    14:00 -4°C° 1.2 mm 2 mps 588 mmHg 98%
    15:00 -5°C° 1.2 mm 2 mps 588 mmHg 98%
    16:00 -5°C° 1.2 mm 2 mps 588 mmHg 98%
    17:00 -6°C° 0.8 mm 2 mps 589 mmHg 98%
    18:00 -6°C° 0.8 mm 2 mps 589 mmHg 98%
    19:00 -7°C° 0.8 mm 2 mps 589 mmHg 98%
    20:00 -7°C° 0.6 mm 2 mps 590 mmHg 97%
    21:00 -7°C° 0.6 mm 2 mps 590 mmHg 97%
    22:00 -8°C° 0.6 mm 2 mps 591 mmHg 97%
    23:00 -8°C° 0.5 mm 2 mps 591 mmHg 97%

    Day after tomorrow, 29 April, Saturday

    Time Temperature Precipitation Wind Pressure Humidity
    00:00 -8°C° 0.5 mm 2 mps 591 mmHg 97%
    01:00 -8°C° 0.5 mm 2 mps 591 mmHg 97%
    02:00 -8°C° 0.3 mm 2 mps 591 mmHg 97%
    03:00 -9°C° 0.3 mm 2 mps 592 mmHg 97%
    04:00 -9°C° 0.3 mm 2 mps 592 mmHg 97%
    05:00 -8°C° 0.1 mm 2 mps 592 mmHg 97%
    06:00 -8°C° 0.1 mm 2 mps 593 mmHg 96%
    07:00 -7°C° 0.1 mm 2 mps 593 mmHg 96%
    08:00 -4°C° 0 mm 1 mps 593 mmHg 96%
    09:00 -3°C° 0 mm 1 mps 594 mmHg 96%
    10:00 -2°C° 0 mm 1 mps 594 mmHg 96%
    11:00 -2°C° 0 mm 0 mps 594 mmHg 97%
    12:00 -2°C° 0 mm 0 mps 594 mmHg 97%
    13:00 -2°C° 0 mm 0 mps 594 mmHg 97%
    14:00 -1°C° 0.1 mm 0 mps 594 mmHg 97%
    15:00 -1°C° 0.1 mm 0 mps 594 mmHg 97%
    16:00 -1°C° 0.1 mm 0 mps 594 mmHg 97%
    17:00 -2°C° 0 mm 1 mps 593 mmHg 98%
    18:00 -4°C° 0 mm 1 mps 592 mmHg 98%
    19:00 -8°C° 0 mm 1 mps 591 mmHg 99%
    20:00 -8°C° 0 mm 1 mps 591 mmHg 98%
    21:00 -8°C° 0 mm 1 mps 591 mmHg 97%
    22:00 -9°C° 0 mm 1 mps 592 mmHg 96%
    23:00 -10°C° 0 mm 2 mps 592 mmHg 96%

    30 April, Sunday

    Time Temperature Precipitation Wind Pressure Humidity
    00:00 -10°C° 0 mm 2 mps 592 mmHg 95%
    01:00 -9°C° 0 mm 2 mps 592 mmHg 95%
    02:00 -10°C° 0 mm 2 mps 591 mmHg 95%
    03:00 -10°C° 0 mm 2 mps 591 mmHg 95%
    04:00 -10°C° 0 mm 2 mps 591 mmHg 94%
    05:00 -8°C° 0 mm 2 mps 592 mmHg 94%
    06:00 -6°C° 0 mm 2 mps 593 mmHg 93%
    07:00 -4°C° 0 mm 2 mps 594 mmHg 93%
    08:00 -3°C° 0 mm 2 mps 594 mmHg 94%
    09:00 -2°C° 0 mm 2 mps 594 mmHg 95%
    10:00 -1°C° 0 mm 2 mps 595 mmHg 96%
    11:00 -1°C° 0 mm 2 mps 594 mmHg 96%
    12:00 +1°C° 0 mm 2 mps 594 mmHg 95%
    13:00 +1°C° 0 mm 2 mps 594 mmHg 95%
    14:00 +1°C° 0 mm 2 mps 594 mmHg 95%
    15:00 +1°C° 0 mm 2 mps 593 mmHg 95%
    16:00 +1°C° 0 mm 2 mps 593 mmHg 95%
    17:00 -1°C° 0 mm 2 mps 593 mmHg 96%
    18:00 -2°C° 0 mm 2 mps 593 mmHg 96%
    19:00 -2°C° 0 mm 2 mps 592 mmHg 96%
    20:00 -3°C° 0 mm 2 mps 592 mmHg 96%
    21:00 -4°C° 0 mm 2 mps 592 mmHg 96%
    22:00 -4°C° 0 mm 2 mps 592 mmHg 96%
    23:00 -5°C° 0 mm 3 mps 592 mmHg 96%

    1 May, Monday

    Time Temperature Precipitation Wind Pressure Humidity
    00:00 -6°C° 0 mm 3 mps 591 mmHg 95%
    01:00 -6°C° 0 mm 3 mps 591 mmHg 95%
    02:00 -6°C° 0 mm 3 mps 591 mmHg 95%
    03:00 -6°C° 0 mm 3 mps 590 mmHg 95%
    04:00 -7°C° 0 mm 3 mps 590 mmHg 94%
    05:00 -6°C° 0 mm 3 mps 590 mmHg 94%
    06:00 -5°C° 0 mm 3 mps 591 mmHg 93%
    07:00 -4°C° 0 mm 3 mps 591 mmHg 92%
    08:00 -2°C° 0 mm 3 mps 591 mmHg 91%
    09:00 -1°C° 0 mm 3 mps 591 mmHg 90%
    10:00 +1°C° 0 mm 2 mps 591 mmHg 89%
    11:00 +2°C° 0 mm 2 mps 591 mmHg 89%
    12:00 +2°C° 0 mm 2 mps 591 mmHg 88%
    13:00 +3°C° 0 mm 2 mps 591 mmHg 87%
    14:00 +3°C° 0.1 mm 2 mps 591 mmHg 88%
    15:00 +3°C° 0.1 mm 2 mps 592 mmHg 89%
    16:00 +3°C° 0.1 mm 2 mps 592 mmHg 89%
    17:00 +2°C° 0.4 mm 2 mps 591 mmHg 92%
    18:00 +1°C° 0.4 mm 1 mps 591 mmHg 94%
    19:00 0°C° 0.4 mm 1 mps 591 mmHg 97%
    20:00 0°C° 0.6 mm 1 mps 591 mmHg 96%
    21:00 -1°C° 0.6 mm 1 mps 592 mmHg 96%
    22:00 -2°C° 0.6 mm 1 mps 592 mmHg 96%
    23:00 -2°C° 0.5 mm 1 mps 592 mmHg 95%

    2 May, Tuesday

    Time Temperature Precipitation Wind Pressure Humidity
    00:00 -2°C° 0.5 mm 1 mps 593 mmHg 95%
    01:00 -2°C° 0.5 mm 1 mps 593 mmHg 95%
    02:00 -2°C° 0.2 mm 1 mps 593 mmHg 96%
    03:00 -2°C° 0.2 mm 1 mps 593 mmHg 96%
    04:00 -3°C° 0.2 mm 1 mps 593 mmHg 96%
    05:00 -2°C° 0.5 mm 1 mps 593 mmHg 96%
    06:00 -1°C° 0.5 mm 1 mps 594 mmHg 96%
    07:00 0°C° 0.5 mm 1 mps 595 mmHg 96%
    08:00 +1°C° 0.4 mm 1 mps 595 mmHg 95%
    09:00 +1°C° 0.4 mm 1 mps 595 mmHg 94%
    10:00 +2°C° 0.4 mm 1 mps 596 mmHg 94%
    11:00 +2°C° 0.7 mm 1 mps 596 mmHg 94%
    12:00 +2°C° 0.7 mm 1 mps 596 mmHg 94%
    13:00 +2°C° 0.7 mm 1 mps 596 mmHg 95%
    14:00 +2°C° 0.9 mm 1 mps 596 mmHg 95%
    15:00 +2°C° 0.9 mm 1 mps 596 mmHg 96%
    16:00 +3°C° 0.9 mm 1 mps 596 mmHg 96%
    17:00 +2°C° 0.8 mm 1 mps 596 mmHg 97%
    18:00 +2°C° 0.8 mm 1 mps 596 mmHg 98%
    19:00 +1°C° 0.8 mm 1 mps 596 mmHg 98%
    20:00 +1°C° 0.5 mm 1 mps 596 mmHg 98%
    21:00 +1°C° 0.5 mm 1 mps 596 mmHg 98%
    22:00 0°C° 0.5 mm 0 mps 596 mmHg 98%
    23:00 -1°C° 0.3 mm 0 mps 596 mmHg 98%
    Show more